| time (UTC) | temp F | wind direction | speed MPH | gust MPH | rain 1hr in | rain 24hr in | rain mn in | humidity % | barometer mb |
| 20260507060038 | 56 | 248 | 5.0 | 11.0 | 0.00 | 0.00 | 0.00 | 65 | 1011.7 |
| 20260507055020 | 56 | 245 | 4.0 | 14.0 | 0.00 | 0.00 | 0.00 | 65 | 1011.4 |
| 20260507054022 | 56 | 261 | 4.0 | 16.0 | 0.00 | 0.00 | 0.00 | 65 | 1011.5 |
| 20260507053021 | 56 | 263 | 4.0 | 9.0 | 0.00 | 0.00 | 0.00 | 66 | 1011.4 |
| 20260507052019 | 56 | 245 | 3.0 | 11.0 | 0.00 | 0.00 | 0.00 | 67 | 1011.4 |
| 20260507051017 | 56 | 233 | 3.0 | 10.0 | 0.00 | 0.00 | 0.00 | 67 | 1011.3 |
| 20260507050019 | 56 | 237 | 4.0 | 10.0 | 0.00 | 0.00 | 0.00 | 67 | 1011.2 |
| 20260507045017 | 56 | 256 | 3.0 | 11.0 | 0.00 | 0.00 | 0.00 | 67 | 1011.0 |
| 20260507044021 | 56 | 260 | 3.0 | 11.0 | 0.00 | 0.00 | 0.00 | 67 | 1011.0 |
| 20260507043024 | 56 | 254 | 4.0 | 14.0 | 0.00 | 0.00 | 0.00 | 66 | 1010.7 |
| 20260507042020 | 56 | 243 | 4.0 | 9.0 | 0.00 | 0.00 | 0.00 | 66 | 1010.7 |
| 20260507041042 | 56 | 249 | 3.0 | 9.0 | 0.00 | 0.00 | 0.00 | 67 | 1010.6 |
| 20260507040023 | 56 | 232 | 3.0 | 8.0 | 0.00 | 0.00 | 0.00 | 67 | 1010.6 |
| 20260507035021 | 56 | 243 | 2.0 | 8.0 | 0.00 | 0.00 | 0.00 | 67 | 1010.5 |
| 20260507034020 | 56 | 239 | 3.0 | 10.0 | 0.00 | 0.00 | 0.00 | 66 | 1010.4 |
| 20260507033022 | 56 | 242 | 4.0 | 16.0 | 0.00 | 0.00 | 0.00 | 66 | 1010.3 |
| 20260507032021 | 56 | 262 | 4.0 | 13.0 | 0.00 | 0.00 | 0.00 | 65 | 1010.1 |
| 20260507031018 | 56 | 256 | 4.0 | 14.0 | 0.00 | 0.00 | 0.00 | 64 | 1010.2 |
| 20260507030016 | 57 | 254 | 5.0 | 18.0 | 0.00 | 0.00 | 0.00 | 64 | 1010.1 |
| 20260507025020 | 57 | 261 | 5.0 | 14.0 | 0.00 | 0.00 | 0.00 | 63 | 1010.1 |
| 20260507024021 | 57 | 262 | 5.0 | 14.0 | 0.00 | 0.00 | 0.00 | 63 | 1009.9 |
| 20260507023023 | 57 | 258 | 4.0 | 15.0 | 0.00 | 0.00 | 0.00 | 64 | 1009.8 |
| 20260507022019 | 57 | 250 | 4.0 | 15.0 | 0.00 | 0.00 | 0.00 | 65 | 1009.9 |
| 20260507021021 | 57 | 263 | 4.0 | 13.0 | 0.00 | 0.00 | 0.00 | 65 | 1009.9 |
| 20260507020042 | 57 | 245 | 3.0 | 9.0 | 0.00 | 0.00 | 0.00 | 65 | 1009.8 |
| 20260507015021 | 57 | 254 | 4.0 | 14.0 | 0.00 | 0.00 | 0.00 | 66 | 1009.8 |
| 20260507014020 | 57 | 244 | 4.0 | 15.0 | 0.00 | 0.00 | 0.00 | 66 | 1009.8 |
| 20260507013020 | 57 | 277 | 3.0 | 15.0 | 0.00 | 0.00 | 0.00 | 66 | 1009.8 |
| 20260507012045 | 57 | 232 | 4.0 | 16.0 | 0.00 | 0.00 | 0.00 | 67 | 1009.6 |
| 20260507010022 | 58 | 253 | 2.0 | 11.0 | 0.00 | 0.00 | 0.00 | 68 | 1009.3 |
| 20260507005018 | 58 | 249 | 5.0 | 17.0 | 0.00 | 0.00 | 0.00 | 68 | 1009.2 |
| 20260507004023 | 58 | 249 | 5.0 | 14.0 | 0.00 | 0.00 | 0.00 | 68 | 1009.0 |
| 20260507003019 | 58 | 244 | 4.0 | 13.0 | 0.00 | 0.00 | 0.00 | 67 | 1009.2 |
| 20260507002020 | 59 | 259 | 5.0 | 17.0 | 0.00 | 0.00 | 0.00 | 67 | 1009.1 |
| 20260507001101 | 59 | 248 | 5.0 | 17.0 | 0.00 | 0.00 | 0.00 | 67 | 1009.0 |
| 20260507000018 | 59 | 237 | 6.0 | 17.0 | 0.00 | 0.00 | 0.00 | 67 | 1009.0 |
| 20260506235017 | 59 | 247 | 5.0 | 15.0 | 0.00 | 0.00 | 0.00 | 67 | 1008.8 |
| 20260506234039 | 59 | 244 | 7.0 | 18.0 | 0.00 | 0.00 | 0.00 | 67 | 1008.6 |
| 20260506233018 | 59 | 251 | 5.0 | 17.0 | 0.00 | 0.00 | 0.00 | 67 | 1008.4 |
| 20260506232039 | 60 | 220 | 7.0 | 15.0 | 0.00 | 0.00 | 0.00 | 67 | 1008.4 |
| 20260506231019 | 60 | 246 | 6.0 | 16.0 | 0.00 | 0.00 | 0.00 | 68 | 1008.2 |
| 20260506230022 | 60 | 236 | 6.0 | 22.0 | 0.00 | 0.00 | 0.00 | 70 | 1008.0 |
| 20260506225018 | 60 | 259 | 5.0 | 17.0 | 0.00 | 0.00 | 0.00 | 71 | 1007.8 |
| 20260506224020 | 60 | 259 | 6.0 | 14.0 | 0.00 | 0.00 | 0.00 | 70 | 1007.7 |
| 20260506223018 | 61 | 263 | 6.0 | 18.0 | 0.00 | 0.00 | 0.00 | 68 | 1007.7 |
| 20260506222038 | 61 | 251 | 8.0 | 29.0 | 0.00 | 0.00 | 0.00 | 66 | 1007.2 |
| 20260506221017 | 62 | 229 | 10.0 | 22.0 | 0.00 | 0.00 | 0.00 | 63 | 1006.7 |
| 20260506220019 | 62 | 240 | 8.0 | 21.0 | 0.00 | 0.00 | 0.00 | 62 | 1006.5 |
| 20260506215040 | 62 | 234 | 6.0 | 17.0 | 0.00 | 0.00 | 0.00 | 61 | 1006.5 |
| 20260506214018 | 63 | 231 | 7.0 | 21.0 | 0.00 | 0.00 | 0.00 | 60 | 1006.3 |
| 20260506213043 | 63 | 216 | 6.0 | 17.0 | 0.00 | 0.00 | 0.00 | 59 | 1006.1 |
| 20260506212018 | 63 | 230 | 6.0 | 16.0 | 0.00 | 0.00 | 0.00 | 58 | 1005.8 |
| 20260506211017 | 62 | 289 | 1.0 | 3.0 | 0.00 | 0.00 | 0.00 | 58 | 1005.4 |
| 20260506210020 | 64 | 317 | 0.0 | 1.0 | 0.00 | 0.00 | 0.00 | 56 | 1005.1 |
| 20260506205040 | 65 | 330 | 1.0 | 2.0 | 0.00 | 0.00 | 0.00 | 53 | 1004.9 |
| 20260506204017 | 65 | 155 | 2.0 | 3.0 | 0.00 | 0.00 | 0.00 | 51 | 1004.7 |
| 20260506203020 | 66 | 155 | 2.0 | 3.0 | 0.00 | 0.00 | 0.00 | 51 | 1004.6 |
| 20260506202023 | 67 | 145 | 3.0 | 6.0 | 0.00 | 0.00 | 0.00 | 49 | 1004.5 |
| 20260506201100 | 67 | 161 | 2.0 | 6.0 | 0.00 | 0.00 | 0.00 | 49 | 1004.5 |
| 20260506200021 | 67 | 146 | 3.0 | 4.0 | 0.00 | 0.00 | 0.00 | 50 | 1004.2 |
| 20260506195021 | 67 | 142 | 3.0 | 6.0 | 0.00 | 0.00 | 0.00 | 49 | 1004.2 |
| 20260506194020 | 68 | 141 | 3.0 | 8.0 | 0.00 | 0.00 | 0.00 | 48 | 1004.0 |
| 20260506193020 | 68 | 148 | 4.0 | 8.0 | 0.00 | 0.00 | 0.00 | 49 | 1003.8 |
| 20260506192023 | 68 | 141 | 5.0 | 8.0 | 0.00 | 0.00 | 0.00 | 48 | 1003.8 |
| 20260506191023 | 68 | 145 | 4.0 | 8.0 | 0.00 | 0.00 | 0.00 | 48 | 1003.5 |
| 20260506190023 | 68 | 164 | 5.0 | 9.0 | 0.00 | 0.00 | 0.00 | 48 | 1003.3 |
| 20260506185021 | 68 | 146 | 5.0 | 8.0 | 0.00 | 0.00 | 0.00 | 48 | 1003.4 |
| 20260506184018 | 69 | 148 | 6.0 | 10.0 | 0.00 | 0.00 | 0.00 | 48 | 1003.2 |
| 20260506183018 | 69 | 144 | 5.0 | 9.0 | 0.00 | 0.00 | 0.00 | 48 | 1003.3 |
| 20260506182020 | 69 | 144 | 6.0 | 10.0 | 0.00 | 0.00 | 0.00 | 47 | 1002.9 |
| 20260506181021 | 70 | 137 | 5.0 | 11.0 | 0.00 | 0.00 | 0.00 | 46 | 1002.9 |
| 20260506180042 | 70 | 141 | 6.0 | 9.0 | 0.00 | 0.00 | 0.00 | 46 | 1002.9 |
| 20260506175039 | 71 | 143 | 5.0 | 10.0 | 0.00 | 0.00 | 0.00 | 45 | 1002.7 |
| 20260506174019 | 71 | 144 | 5.0 | 8.0 | 0.00 | 0.00 | 0.00 | 44 | 1002.8 |
| 20260506173101 | 72 | 141 | 5.0 | 11.0 | 0.00 | 0.00 | 0.00 | 44 | 1002.8 |
| 20260506172024 | 72 | 142 | 6.0 | 14.0 | 0.00 | 0.00 | 0.00 | 44 | 1002.7 |
| 20260506171039 | 72 | 147 | 5.0 | 11.0 | 0.00 | 0.00 | 0.00 | 43 | 1002.9 |
| 20260506170019 | 73 | 140 | 6.0 | 14.0 | 0.00 | 0.00 | 0.00 | 43 | 1002.8 |
| 20260506165019 | 73 | 142 | 7.0 | 15.0 | 0.00 | 0.00 | 0.00 | 43 | 1002.9 |
| 20260506164020 | 73 | 144 | 7.0 | 14.0 | 0.00 | 0.00 | 0.00 | 43 | 1002.8 |
| 20260506163020 | 73 | 142 | 8.0 | 15.0 | 0.00 | 0.00 | 0.00 | 43 | 1002.9 |
| 20260506162041 | 74 | 144 | 7.0 | 13.0 | 0.00 | 0.00 | 0.00 | 43 | 1003.0 |
| 20260506161020 | 74 | 146 | 8.0 | 17.0 | 0.00 | 0.00 | 0.00 | 41 | 1003.1 |
| 20260506160020 | 75 | 147 | 5.0 | 9.0 | 0.00 | 0.00 | 0.00 | 40 | 1003.1 |
| 20260506155019 | 77 | 156 | 5.0 | 13.0 | 0.00 | 0.00 | 0.00 | 36 | 1003.0 |
| 20260506154018 | 78 | 219 | 2.0 | 8.0 | 0.00 | 0.00 | 0.00 | 31 | 1003.0 |
| 20260506153020 | 78 | 221 | 4.0 | 9.0 | 0.00 | 0.00 | 0.00 | 31 | 1003.1 |
| 20260506152019 | 78 | 229 | 3.0 | 9.0 | 0.00 | 0.00 | 0.00 | 31 | 1003.1 |
| 20260506151038 | 78 | 212 | 3.0 | 7.0 | 0.00 | 0.00 | 0.00 | 31 | 1003.1 |
| 20260506150020 | 79 | 219 | 3.0 | 9.0 | 0.00 | 0.00 | 0.00 | 31 | 1003.2 |
| 20260506145022 | 79 | 222 | 4.0 | 11.0 | 0.00 | 0.00 | 0.00 | 30 | 1003.1 |
| 20260506144023 | 79 | 219 | 4.0 | 9.0 | 0.00 | 0.00 | 0.00 | 30 | 1003.2 |
| 20260506143018 | 80 | 169 | 2.0 | 6.0 | 0.00 | 0.00 | 0.00 | 30 | 1003.2 |
| 20260506142022 | 79 | 203 | 1.0 | 4.0 | 0.00 | 0.00 | 0.00 | 30 | 1003.2 |
| 20260506141022 | 78 | 152 | 2.0 | 6.0 | 0.00 | 0.00 | 0.00 | 35 | 1003.2 |
| 20260506140021 | 78 | 139 | 5.0 | 14.0 | 0.00 | 0.00 | 0.00 | 35 | 1003.3 |
| 20260506135018 | 78 | 133 | 9.0 | 22.0 | 0.00 | 0.00 | 0.00 | 34 | 1003.2 |
| 20260506134020 | 78 | 140 | 9.0 | 21.0 | 0.00 | 0.00 | 0.00 | 34 | 1003.4 |
| 20260506132020 | 78 | 136 | 8.0 | 15.0 | 0.00 | 0.00 | 0.00 | 35 | 1003.6 |
| 20260506131018 | 79 | 131 | 8.0 | 13.0 | 0.00 | 0.00 | 0.00 | 34 | 1003.8 |
| 20260506130017 | 78 | 137 | 9.0 | 18.0 | 0.00 | 0.00 | 0.00 | 36 | 1003.9 |
| 20260506125023 | 77 | 133 | 7.0 | 13.0 | 0.00 | 0.00 | 0.00 | 36 | 1004.1 |
| 20260506124020 | 76 | 138 | 7.0 | 15.0 | 0.00 | 0.00 | 0.00 | 37 | 1004.2 |
| 20260506123019 | 76 | 140 | 9.0 | 19.0 | 0.00 | 0.00 | 0.00 | 37 | 1004.4 |
| 20260506122020 | 75 | 137 | 9.0 | 21.0 | 0.00 | 0.00 | 0.00 | 39 | 1004.5 |
| 20260506121018 | 75 | 131 | 8.0 | 18.0 | 0.00 | 0.00 | 0.00 | 40 | 1004.6 |
| 20260506120018 | 74 | 137 | 9.0 | 16.0 | 0.00 | 0.00 | 0.00 | 40 | 1004.9 |
| 20260506115021 | 75 | 134 | 10.0 | 18.0 | 0.00 | 0.00 | 0.00 | 39 | 1005.0 |
| 20260506114039 | 75 | 131 | 10.0 | 19.0 | 0.00 | 0.00 | 0.00 | 38 | 1005.1 |
| 20260506113020 | 75 | 129 | 9.0 | 19.0 | 0.00 | 0.00 | 0.00 | 40 | 1005.1 |
| 20260506112020 | 75 | 130 | 8.0 | 18.0 | 0.00 | 0.00 | 0.00 | 41 | 1005.4 |
| 20260506111021 | 75 | 126 | 10.0 | 18.0 | 0.00 | 0.00 | 0.00 | 40 | 1005.5 |
| 20260506110023 | 75 | 138 | 10.0 | 24.0 | 0.00 | 0.00 | 0.00 | 40 | 1005.7 |
| 20260506105023 | 75 | 122 | 9.0 | 18.0 | 0.00 | 0.00 | 0.00 | 42 | 1005.9 |
| 20260506104021 | 74 | 128 | 12.0 | 22.0 | 0.00 | 0.00 | 0.00 | 43 | 1006.2 |
| 20260506103020 | 74 | 128 | 11.0 | 24.0 | 0.00 | 0.00 | 0.00 | 42 | 1006.2 |
| 20260506102022 | 74 | 140 | 9.0 | 19.0 | 0.00 | 0.00 | 0.00 | 42 | 1006.3 |
| 20260506101048 | 74 | 141 | 10.0 | 26.0 | 0.00 | 0.00 | 0.00 | 41 | 1006.3 |
| 20260506100020 | 75 | 150 | 8.0 | 17.0 | 0.00 | 0.00 | 0.00 | 40 | 1006.5 |
| 20260506095020 | 75 | 154 | 9.0 | 21.0 | 0.00 | 0.00 | 0.00 | 40 | 1006.6 |
| 20260506094019 | 75 | 151 | 7.0 | 15.0 | 0.00 | 0.00 | 0.00 | 41 | 1006.7 |
| 20260506093021 | 74 | 129 | 8.0 | 26.0 | 0.00 | 0.00 | 0.00 | 43 | 1007.0 |
| 20260506092019 | 73 | 132 | 7.0 | 15.0 | 0.00 | 0.00 | 0.00 | 43 | 1007.1 |
| 20260506091017 | 73 | 136 | 7.0 | 18.0 | 0.00 | 0.00 | 0.00 | 43 | 1007.0 |
| 20260506090019 | 73 | 142 | 5.0 | 14.0 | 0.00 | 0.00 | 0.00 | 42 | 1007.1 |
| 20260506085023 | 72 | 139 | 4.0 | 9.0 | 0.00 | 0.00 | 0.00 | 43 | 1007.2 |
| 20260506084022 | 73 | 125 | 4.0 | 9.0 | 0.00 | 0.00 | 0.00 | 42 | 1007.1 |
| 20260506083019 | 74 | 110 | 7.0 | 17.0 | 0.00 | 0.00 | 0.00 | 42 | 1007.3 |
| 20260506082019 | 74 | 351 | 3.0 | 6.0 | 0.00 | 0.00 | 0.00 | 43 | 1007.4 |
| 20260506081023 | 73 | 359 | 2.0 | 4.0 | 0.00 | 0.00 | 0.00 | 44 | 1007.4 |
| 20260506073022 | 69 | 20 | 1.0 | 3.0 | 0.00 | 0.00 | 0.00 | 52 | 1007.9 |
| 20260506072018 | 68 | 84 | 2.0 | 3.0 | 0.00 | 0.00 | 0.00 | 51 | 1007.8 |
| 20260506071021 | 68 | 258 | 1.0 | 2.0 | 0.00 | 0.00 | 0.00 | 53 | 1008.0 |
| 20260506061519 | 62 | 228 | 1.0 | 3.0 | 0.00 | 0.00 | 0.00 | 62 | 1008.4 |